Home   Weather   San Francisco   Past weeks

Flag for USA Past Weather in San Francisco, California, USA — Yesterday and Last 2 Weeks

65 °F


Feels Like: 65 °F
Forecast: 59 / 68 °F
Wind: 6 mph from Northeast

Location: San Francisco International Airport

Current Time: Oct 26, 2016 at 12:31:26 PM

Latest Report: Oct 26, 2016 at 11:56 AM

Visibility: 10 mi

Pressure: 30.05 "Hg

Humidity: 73%

Dew Point: 56 °F

Location of San FranciscoLocation

Past Weather in San Francisco — Graph


San Francisco Temperature Yesterday

Maximum temperature yesterday: 70 °F (at 2:56 PM)
Minimum temperature yesterday: 62 °F (at 5:56 AM)
Average temperature yesterday: 66 °F

High & Low Weather Summary for the Past Weeks

High84 °F (Oct 13, 5:56 PM)94% (Oct 15, 8:56 PM)30.21 "Hg (Oct 15, 8:56 PM)
Low51 °F (Oct 23, 5:56 AM)39% (Oct 19, 3:56 PM)29.74 "Hg (Oct 16, 2:56 PM)
Average62 °F73%29.99 "Hg
* Reported Oct 11 10:56 AM — Oct 26 10:56 AM, San Francisco, Weather by CustomWeather, © 2016

Note: Actual official high and low records may vary slightly from our data, if they occured in-between our weather recording intervals... More about our weather records


San Francisco Weather History for the Previous 24 Hours

Scroll right to see more
Time TempWeatherWind HumidityBarometerVisibility
10:56 AM
Wed, Oct 26
63 °FPassing clouds.8 mph75%30.07 "Hg10 mi
9:56 AM62 °FPassing clouds.8 mph73%30.08 "Hg10 mi
8:56 AM61 °FPassing clouds.3 mph75%30.07 "Hg10 mi
7:56 AM58 °FPassing clouds.6 mph81%30.05 "Hg10 mi
6:56 AM58 °FPassing clouds.10 mph84%30.04 "Hg10 mi
5:56 AM58 °FPassing clouds.7 mph84%30.02 "Hg10 mi
4:56 AM59 °FPassing clouds.3 mph78%30.01 "Hg10 mi
3:56 AM61 °FPassing clouds.7 mph70%30.00 "Hg10 mi
2:56 AM62 °FPassing clouds.3 mph73%30.00 "Hg10 mi
1:56 AM64 °FPassing clouds.No wind68%30.01 "Hg10 mi
12:56 AM64 °FPassing clouds.3 mph75%30.02 "Hg10 mi
11:56 PM
Tue, Oct 25
65 °FPassing clouds.No wind63%30.02 "Hg10 mi
10:56 PM65 °FPassing clouds.No wind63%30.03 "Hg10 mi
9:56 PM66 °FPassing clouds.8 mph63%30.02 "Hg10 mi
8:56 PM67 °FPartly cloudy.5 mph61%30.02 "Hg10 mi
7:56 PM67 °FPassing clouds.7 mph63%30.02 "Hg10 mi
6:56 PM67 °FPartly cloudy.6 mph66%30.01 "Hg10 mi
5:56 PM68 °FPartly sunny.7 mph65%30.02 "Hg10 mi
4:56 PM69 °FPartly sunny.14 mph63%30.02 "Hg10 mi
3:56 PM70 °FPartly sunny.21 mph61%30.02 "Hg10 mi
2:56 PM70 °FPartly sunny.24 mph59%30.01 "Hg10 mi
1:56 PM69 °FBroken clouds.29 mph59%30.04 "Hg10 mi
12:56 PM69 °FMostly cloudy.20 mph61%30.05 "Hg10 mi
Weather by CustomWeather, © 2016

See weather overviewHow to use our weather pages